H-2A DEB, 28243

Orbit data source: Space-Track

H-2A DEB, 28243 is space debris in HEO originally from a launch on Mon, 04 Feb 2002 UTC launched from the Tanegashima Space Center (TNSTA). Debris objects in space refer to the collection of defunct objects orbiting the Earth. Examples of debris include non-operational satellites, rocket bodies, and fragments generated from explosions, collisions, or faulty payload assembly.

Loading next visibility...
Identifier
28243, 2002-003E
Orbit
HEO
Country
Flag of JPJP / JPN
Related business
Manufacturer
MHI Tobishima
Mission
Spacecraft
Bus & Motor
Unknown
Mass
~200 kg wet, ~200 kg dry
Launch date (UTC)
2002-02-04 (24 years ago)
Launch vehicle
Unknown
Launch site
Tanegashima Space Center (TNSTA)
Object type
Payload
Rocket body
Debris
Shape & HBR
Half Cyl, 2.0 m
Radar Cross Section
13.425 m², Large (>1 m²)

Expand to show TLE details & history
Last TLE update: 5 days ago

TLE from 5 days ago
0 H-2A DEB
1 28243U 02003E   25257.03888019  .00001108  00000-0  23169-2 0  9995
2 28243  28.6978 274.5300 7047582 269.6257  16.5850  2.49864461199101
Epoch: 2025-09-14T00:55Z
TLE epoch observation values (Epoch: 2025-09-14T00:55:59.248Z)
Latitude
-0.00015°
Longitude
-92.72607°
Altitude
5,218.923 km
Speed
7.167 km/s
True Right ascension
18h 18m 08s
True Declination
0° 00' 01"
Sunlit
Object was in daylight at epoch
Visualization orbit readout
Latitude
Unknown
Longitude
Unknown
Altitude
Unknown
Speed
Unknown
Apparent Right ascension
Unknown
Apparent Declination
Unknown
Sunlit
N/A
Visualization observer readout
Local Sidereal Time
07:20:16
Azimuth
Unknown
Elevation
Unknown
Doppler factor
Unknown
Orbital elements
Apogee altitude
32,735.526 km
Perigee altitude
395.837 km
Semi-major axis
22,943.818 km
Eccentricity
0.70476
Inclination
28.6978°
RAAN
274.53°
Arg. of periapsis
269.6257°
True anomaly
90.11821°
Mean anomaly
16.585°
Eccentric anomaly
45.27391°
Mean motion
0.62452 °/min
Orbital period
576.45 mins
BSTAR
0.0023169
Loading maneuver chart data...
Computing Atmospheric mass density...
Loading historical data...
Loading historical data...
Loading historical data...
Loading historical data...
Loading historical data...
Loading historical data...
Loading historical data...
Other satellites on launch #3 in the year 2002 (2002-02-04 UTC)

Documentation

Showing up to 5 results
|